Stations météo

réclame
Mon MeteoGroup
Threave, Grande-Bretagne (99090): Température de l'air & dewpoint: 15.02.2019 14:00:00 - 21.02.2019 14:00:00 (GMT)Threave, Grande-Bretagne (99090): Température de l'air -20cm & Température de l'air -100cm: 15.02.2019 14:00:00 - 21.02.2019 14:00:00 (GMT)Threave, Grande-Bretagne (99090): Quantités de précipitations: 15.02.2019 14:00:00 - 21.02.2019 14:00:00 (GMT)
Date & Time tt [°C] td [°C] tt -20cm [°C] tt -100cm [°C] rr [mm]
21.02.2019 14:00:00 9,9 8,7 - - 0,0
21.02.2019 13:00:00 10,2 8,7 - - 0,0
21.02.2019 12:00:00 10,4 9,0 - - 0,0
21.02.2019 11:00:00 10,3 9,1 - - 0,0
21.02.2019 10:00:00 10,2 9,4 - - 0,0
21.02.2019 09:00:00 9,6 9,3 6,7 6,7 0,0
21.02.2019 08:00:00 9,1 8,8 - - 0,0
21.02.2019 07:00:00 9,7 9,4 - - 0,0
21.02.2019 06:00:00 9,8 9,4 - - 0,0
21.02.2019 05:00:00 9,4 9,0 - - 0,0
21.02.2019 04:00:00 9,7 9,4 - - 0,2
21.02.2019 03:00:00 9,4 9,1 - - 0,0
21.02.2019 02:00:00 9,4 9,0 - - 0,0
21.02.2019 01:00:00 9,4 9,0 - - 0,2
21.02.2019 00:00:00 9,3 9,0 - - 0,4
20.02.2019 23:00:00 9,2 8,8 - - 0,0
20.02.2019 22:00:00 9,4 8,9 - - 0,0
20.02.2019 21:00:00 9,5 9,1 - - 0,2
20.02.2019 20:00:00 9,1 8,8 - - 0,0
20.02.2019 19:00:00 9,0 8,7 - - 0,0
20.02.2019 18:00:00 8,8 8,5 - - 0,0
20.02.2019 17:00:00 8,9 8,5 - - 0,2
20.02.2019 16:00:00 8,8 8,4 - - 0,2
20.02.2019 15:00:00 - - - - -
20.02.2019 14:00:00 - - - - -
20.02.2019 13:00:00 - - - - 0,4
20.02.2019 12:00:00 9,0 8,2 - - 0,0
20.02.2019 11:00:00 8,7 8,1 - - 0,2
20.02.2019 10:00:00 8,6 7,9 - - 0,0
20.02.2019 09:00:00 8,5 7,7 6,5 6,5 0,4
20.02.2019 08:00:00 8,6 7,6 - - 0,0
20.02.2019 07:00:00 8,6 7,6 - - 0,0
20.02.2019 06:00:00 8,9 8,1 - - 0,2
20.02.2019 05:00:00 8,7 8,2 - - 2,6
20.02.2019 04:00:00 8,7 8,1 - - 1,4
20.02.2019 03:00:00 8,4 7,8 - - 0,6
20.02.2019 02:00:00 8,7 8,1 - - 1,2
20.02.2019 01:00:00 8,5 7,9 - - 2,8
20.02.2019 00:00:00 8,0 7,6 - - 2,0
19.02.2019 23:00:00 7,9 7,4 - - 2,4
19.02.2019 22:00:00 7,6 7,1 - - 2,2
19.02.2019 21:00:00 7,1 6,5 - - 1,4
19.02.2019 20:00:00 7,2 6,4 - - 2,0
19.02.2019 19:00:00 7,2 6,3 - - 1,4
19.02.2019 18:00:00 7,2 6,2 - - 0,6
19.02.2019 17:00:00 7,2 5,9 - - 0,2
19.02.2019 16:00:00 7,5 5,6 - - 0,0
19.02.2019 15:00:00 7,7 5,3 - - 0,0
19.02.2019 14:00:00 7,4 4,5 - - 0,0
19.02.2019 13:00:00 7,5 4,6 - - 0,0
19.02.2019 12:00:00 7,3 4,9 - - 0,0
19.02.2019 11:00:00 7,1 4,9 - - 0,0
19.02.2019 10:00:00 7,0 5,2 - - 0,0
19.02.2019 09:00:00 6,7 5,3 6,2 6,4 0,0
19.02.2019 08:00:00 6,2 5,2 - - 0,0
19.02.2019 07:00:00 6,3 5,2 - - 0,0
19.02.2019 06:00:00 6,3 5,0 - - 0,0
19.02.2019 05:00:00 6,7 5,2 - - 0,0
19.02.2019 04:00:00 6,6 4,9 - - 0,0
19.02.2019 03:00:00 6,6 5,1 - - 0,0
19.02.2019 02:00:00 6,8 5,3 - - 0,0
19.02.2019 01:00:00 6,5 5,0 - - 0,0
19.02.2019 00:00:00 6,4 4,9 - - 0,0
18.02.2019 23:00:00 6,9 5,6 - - 0,0
18.02.2019 22:00:00 6,9 5,5 - - 0,0
18.02.2019 21:00:00 6,5 4,9 - - 0,0
18.02.2019 20:00:00 7,2 5,8 - - 0,2
18.02.2019 19:00:00 7,0 5,9 - - 0,4
18.02.2019 18:00:00 6,5 5,2 - - 1,8
18.02.2019 17:00:00 7,0 5,8 - - 1,0
18.02.2019 16:00:00 7,6 5,0 - - 0,0
18.02.2019 15:00:00 7,4 4,9 - - 0,0
18.02.2019 14:00:00 7,1 5,2 - - 0,4
18.02.2019 13:00:00 6,4 4,9 - - 0,8
18.02.2019 12:00:00 7,0 4,2 - - 0,2
18.02.2019 11:00:00 7,4 3,4 - - 0,0
18.02.2019 10:00:00 7,6 3,3 - - 0,0
18.02.2019 09:00:00 6,8 3,8 6,2 6,2 0,0
18.02.2019 08:00:00 6,2 4,0 - - 0,0
18.02.2019 07:00:00 6,1 4,9 - - 0,0
18.02.2019 06:00:00 6,5 5,6 - - 2,4
18.02.2019 05:00:00 7,9 6,0 - - 0,0
18.02.2019 04:00:00 8,0 5,2 - - 0,0
18.02.2019 03:00:00 8,0 5,5 - - 0,0
18.02.2019 02:00:00 8,1 6,2 - - 0,0
18.02.2019 01:00:00 8,0 6,2 - - 0,0
18.02.2019 00:00:00 7,9 6,2 - - 0,0
17.02.2019 23:00:00 8,3 6,7 - - 0,0
17.02.2019 22:00:00 8,2 6,4 - - 0,2
17.02.2019 21:00:00 8,1 6,6 - - 0,0
17.02.2019 20:00:00 8,4 6,1 - - 0,0
17.02.2019 19:00:00 7,8 5,8 - - 0,0
17.02.2019 18:00:00 7,9 6,0 - - 0,0
17.02.2019 17:00:00 8,4 6,4 - - 0,0
17.02.2019 16:00:00 9,1 6,7 - - 0,0
17.02.2019 15:00:00 9,9 7,2 - - 0,0
17.02.2019 14:00:00 9,6 7,9 - - 0,0
17.02.2019 13:00:00 9,5 8,3 - - 0,0
17.02.2019 12:00:00 8,0 7,2 - - 1,4
17.02.2019 11:00:00 - - - - 0,2
17.02.2019 10:00:00 8,5 5,7 - - 0,0
17.02.2019 09:00:00 8,9 6,0 6,0 6,2 0,0
17.02.2019 08:00:00 8,8 6,0 - - 0,0
17.02.2019 07:00:00 8,7 5,8 - - 0,0
17.02.2019 06:00:00 8,9 5,9 - - 0,0
17.02.2019 05:00:00 8,9 5,7 - - 0,0
17.02.2019 04:00:00 8,7 6,3 - - 0,0
17.02.2019 03:00:00 9,3 6,7 - - 0,0
17.02.2019 02:00:00 9,9 7,1 - - 0,0
17.02.2019 01:00:00 9,6 7,4 - - 0,0
17.02.2019 00:00:00 9,3 7,8 - - 0,0
16.02.2019 23:00:00 9,1 8,5 - - 0,2
16.02.2019 22:00:00 9,3 8,6 - - 0,0
16.02.2019 21:00:00 8,7 8,2 - - 0,0
16.02.2019 20:00:00 8,4 7,6 - - 0,0
16.02.2019 19:00:00 8,6 6,8 - - 0,0
16.02.2019 18:00:00 8,3 6,2 - - 0,0
16.02.2019 17:00:00 8,1 6,2 - - 0,0
16.02.2019 16:00:00 8,6 6,7 - - 0,0
16.02.2019 15:00:00 9,8 6,8 - - 0,0
16.02.2019 14:00:00 8,9 7,1 - - 0,0
16.02.2019 13:00:00 9,3 6,6 - - 0,0
16.02.2019 12:00:00 9,9 6,1 - - 0,0
16.02.2019 11:00:00 9,7 5,7 - - 0,0
16.02.2019 10:00:00 9,1 5,7 - - 0,0
16.02.2019 09:00:00 8,7 6,3 5,7 6,2 0,0
16.02.2019 08:00:00 8,2 6,1 - - 0,0
16.02.2019 07:00:00 8,6 6,4 - - 0,0
16.02.2019 06:00:00 9,0 5,9 - - 0,0
16.02.2019 05:00:00 9,2 5,6 - - 0,0
16.02.2019 04:00:00 9,4 5,9 - - 0,0
16.02.2019 03:00:00 9,3 6,6 - - 0,0
16.02.2019 02:00:00 9,3 6,7 - - 0,0
16.02.2019 01:00:00 9,4 7,4 - - 0,0
16.02.2019 00:00:00 9,2 7,8 - - 0,0
15.02.2019 23:00:00 9,1 8,0 - - 0,0
15.02.2019 22:00:00 9,9 6,2 - - 0,0
15.02.2019 21:00:00 10,3 5,9 - - 0,0
15.02.2019 20:00:00 9,8 5,4 - - 0,0
15.02.2019 19:00:00 9,0 4,6 - - 0,0
15.02.2019 18:00:00 9,2 3,7 - - 0,0
15.02.2019 17:00:00 8,9 3,0 - - 0,0
15.02.2019 16:00:00 8,8 3,3 - - 0,0
15.02.2019 15:00:00 8,6 2,9 - - 0,0
15.02.2019 14:00:00 9,2 2,9 - - 0,0

tt = Température de l'air
td = dewpoint
tt -20cm = Température de l'air -20cm
tt -100cm = Température de l'air -100cm
rr = Quantités de précipitations

stations d'obs. à proximité